H1 CPF 2 NER 2023 6 5 9 156 01 glonass146 H2 2216101 9146 54377 2023 6 5 0 0 0 2023 6 8 23 45 0 900 1 1 0 0 0 1 H9 10 0 60100 0.00000 0 -5929028.041 13336577.679 20921795.698 10 0 60100 900.00000 0 -8140975.048 14470646.593 19362584.100 10 0 60100 1800.00000 0 -10077019.648 15658126.525 17427251.454 10 0 60100 2700.00000 0 -11704449.653 16842489.303 15153255.654 10 0 60100 3600.00000 0 -13002861.963 17963747.248 12584671.400 10 0 60100 4500.00000 0 -13964768.388 18961025.404 9771342.277 10 0 60100 5400.00000 0 -14595664.308 19775193.976 6767916.589 10 0 60100 6300.00000 0 -14913557.254 20351449.569 3632785.236 10 0 60100 7200.00000 0 -14947975.321 20641735.377 426942.364 10 0 60100 8100.00000 0 -14738497.553 20606896.846 -2787208.542 10 0 60100 9000.00000 0 -14332869.028 20218480.207 -5947079.070 10 0 60100 9900.00000 0 -13784781.246 19460096.285 -8991125.704 10 0 60100 10800.00000 0 -13151412.920 18328290.468 -11860059.863 10 0 60100 11700.00000 0 -12490836.600 16832880.785 -14498013.249 10 0 60100 12600.00000 0 -11859402.268 14996748.816 -16853634.674 10 0 60100 13500.00000 0 -11309209.882 12855091.562 -18881096.078 10 0 60100 14400.00000 0 -10885778.811 10454165.303 -20540987.650 10 0 60100 15300.00000 0 -10626013.394 7849574.078 -21801084.408 10 0 60100 16200.00000 0 -10556550.926 5104174.483 -22636969.512 10 0 60100 17100.00000 0 -10692561.756 2285684.497 -23032502.698 10 0 60100 18000.00000 0 -11037051.814 -535903.824 -22980125.393 10 0 60100 18900.00000 0 -11580696.372 -3291000.051 -22480997.446 10 0 60100 19800.00000 0 -12302211.306 -5913068.486 -21544963.696 10 0 60100 20700.00000 0 -13169245.508 -8341148.906 -20190351.822 10 0 60100 21600.00000 0 -14139756.113 -10522141.126 -18443606.161 10 0 60100 22500.00000 0 -15163808.109 -12412759.659 -16338765.142 10 0 60100 23400.00000 0 -16185722.105 -13981078.693 -13916792.952 10 0 60100 24300.00000 0 -17146479.630 -15207604.829 -11224778.696 10 0 60100 25200.00000 0 -17986284.631 -16085834.827 -8315018.784 10 0 60100 26100.00000 0 -18647173.397 -16622277.023 -5244000.466 10 0 60100 27000.00000 0 -19075563.256 -16835937.466 -2071306.306 10 0 60100 27900.00000 0 -19224633.023 -16757294.096 1141539.237 10 0 60100 28800.00000 0 -19056435.296 -16426803.473 4332258.775 10 0 60100 29700.00000 0 -18543652.010 -15893003.945 7439023.659 10 0 60100 30600.00000 0 -17670919.583 -15210295.789 10401645.386 10 0 60100 31500.00000 0 -16435667.940 -14436492.059 13162734.039 10 0 60100 32400.00000 0 -14848437.954 -13630243.184 15668801.922 10 0 60100 33300.00000 0 -12932663.395 -12848443.394 17871291.706 10 0 60100 34200.00000 0 -10723925.619 -12143727.513 19727509.952 10 0 60100 35100.00000 0 -8268710.897 -11562162.799 21201448.729 10 0 60100 36000.00000 0 -5622720.662 -11141232.231 22264480.181 10 0 60100 36900.00000 0 -2848803.341 -10908193.594 22895911.131 10 0 60100 37800.00000 0 -14591.880 -10878883.086 23083387.359 10 0 60100 38700.00000 0 2810056.726 -11057013.931 22823139.707 10 0 60100 39600.00000 0 5555715.320 -11433999.988 22120066.924 10 0 60100 40500.00000 0 8156025.229 -11989312.692 20987652.943 10 0 60100 41400.00000 0 10550211.296 -12691357.518 19447719.155 10 0 60100 42300.00000 0 12685369.553 -13498834.416 17530015.271 10 0 60100 43200.00000 0 14518432.822 -14362526.289 15271655.324 10 0 60100 44100.00000 0 16017732.423 -15227441.300 12716408.443 10 0 60100 45000.00000 0 17164090.646 -16035219.465 9913857.032 10 0 60100 45900.00000 0 17951398.003 -16726702.311 6918437.864 10 0 60100 46800.00000 0 18386650.823 -17244556.884 3788384.289 10 0 60100 47700.00000 0 18489447.446 -17535842.501 584590.165 10 0 60100 48600.00000 0 18290964.332 -17554410.558 -2630581.935 10 0 60100 49500.00000 0 17832455.649 -17263034.431 -5794524.191 10 0 60100 50400.00000 0 17163340.379 -16635177.705 -8845613.684 10 0 60100 51300.00000 0 16338958.780 -15656324.310 -11724423.991 10 0 60100 52200.00000 0 15418094.200 -14324812.790 -14374893.318 10 0 60100 53100.00000 0 14460366.348 -12652138.189 -16745425.232 10 0 60100 54000.00000 0 13523607.417 -10662707.793 -18789899.657 10 0 60100 54900.00000 0 12661332.973 -8393060.273 -20468573.882 10 0 60100 55800.00000 0 11920415.181 -5890580.644 -21748855.812 10 0 60100 56700.00000 0 11339056.894 -3211764.673 -22605934.605 10 0 60100 57600.00000 0 10945152.014 -420105.283 -23023256.886 10 0 60100 58500.00000 0 10755100.786 2416310.795 -22992839.987 10 0 60100 59400.00000 0 10773129.161 5227396.003 -22515416.952 10 0 60100 60300.00000 0 10991139.895 7943736.888 -21600411.379 10 0 60100 61200.00000 0 11389100.543 10499240.084 -20265743.398 10 0 60100 62100.00000 0 11935950.865 12833640.097 -18537471.301 10 0 60100 63000.00000 0 12590990.439 14894765.583 -16449276.361 10 0 60100 63900.00000 0 13305687.152 16640471.112 -14041801.293 10 0 60100 64800.00000 0 14025829.735 18040155.508 -11361855.525 10 0 60100 65700.00000 0 14693933.207 19075805.185 -8461502.882 10 0 60100 66600.00000 0 15251795.641 19742520.711 -5397049.546 10 0 60100 67500.00000 0 15643098.433 20048506.406 -2227951.948 10 0 60100 68400.00000 0 15815940.604 20014525.139 984334.252 10 0 60100 69300.00000 0 15725200.491 19672842.644 4177541.828 10 0 60100 70200.00000 0 15334625.552 19065706.920 7289793.502 10 0 60100 71100.00000 0 14618562.426 18243427.406 10260794.291 10 0 60100 72000.00000 0 13563254.442 17262135.118 13032992.038 10 0 60100 72900.00000 0 12167651.828 16181317.989 15552684.179 10 0 60100 73800.00000 0 10443700.057 15061234.686 17771050.056 10 0 60100 74700.00000 0 8416093.374 13960315.044 19645089.497 10 0 60100 75600.00000 0 6121502.609 12932655.555 21138450.316 10 0 60100 76500.00000 0 3607307.917 12025714.248 22222129.445 10 0 60100 77400.00000 0 929887.498 11278300.985 22875034.686 10 0 60100 78300.00000 0 -1847468.453 10718946.916 23084396.558 10 0 60100 79200.00000 0 -4656933.888 10364721.203 22846022.303 10 0 60100 80100.00000 0 -7428716.305 10220544.726 22164386.790 10 0 60100 81000.00000 0 -10093714.442 10279029.936 21052557.901 10 0 60100 81900.00000 0 -12586155.287 10520854.305 19531956.821 10 0 60100 82800.00000 0 -14846101.753 10915652.548 17631956.665 10 0 60100 83700.00000 0 -16821727.307 11423391.108 15389325.876 10 0 60100 84600.00000 0 -18471262.938 11996167.925 12847525.865 10 0 60100 85500.00000 0 -19764535.045 12580362.301 10055875.367 10 0 60101 0.00000 0 -20684029.487 13119044.450 7068597.180 10 0 60101 900.00000 0 -21225437.196 13554543.083 3943763.695 10 0 60101 1800.00000 0 -21397656.869 13831061.157 742165.769 10 0 60101 2700.00000 0 -21222256.056 13897229.070 -2473877.931 10 0 60101 3600.00000 0 -20732412.071 13708485.051 -5641743.187 10 0 60101 4500.00000 0 -19971378.359 13229180.653 -8699730.653 10 0 60101 5400.00000 0 -18990541.628 12434320.445 -11588278.964 10 0 60101 6300.00000 0 -17847152.805 11310860.623 -14251135.591 10 0 60101 7200.00000 0 -16601828.743 9858510.154 -16636461.425 10 0 60101 8100.00000 0 -15315931.353 8089999.369 -18697846.668 10 0 60101 9000.00000 0 -14048935.793 6030803.708 -20395217.671 10 0 60101 9900.00000 0 -12855899.485 3718333.546 -21695616.824 10 0 60101 10800.00000 0 -11785139.078 1200623.686 -22573840.472 10 0 60101 11700.00000 0 -10876213.148 -1465422.885 -23012922.922 10 0 60101 12600.00000 0 -10158295.114 -4216163.641 -23004457.792 10 0 60101 13500.00000 0 -9649003.961 -6983628.861 -22548751.298 10 0 60101 14400.00000 0 -9353740.780 -9698117.344 -21654805.385 10 0 60101 15300.00000 0 -9265557.625 -12290867.706 -20340131.847 10 0 60101 16200.00000 0 -9365562.721 -14696694.647 -18630401.809 10 0 60101 17100.00000 0 -9623843.522 -16856481.267 -16558937.960 10 0 60101 18000.00000 0 -10000867.424 -18719424.688 -14166059.874 10 0 60101 18900.00000 0 -10449300.019 -20244942.688 -11498295.448 10 0 60101 19800.00000 0 -10916163.414 -21404163.316 -8607473.952 10 0 60101 20700.00000 0 -11345242.996 -22180936.826 -5549718.441 10 0 60101 21600.00000 0 -11679640.812 -22572329.261 -2384357.113 10 0 60101 22500.00000 0 -11864367.712 -22588578.597 827225.315 10 0 60101 23400.00000 0 -11848864.941 -22252516.699 4022773.987 10 0 60101 24300.00000 0 -11589348.942 -21598482.513 7140365.245 10 0 60101 25200.00000 0 -11050880.657 -20670772.997 10119599.954 10 0 60101 26100.00000 0 -10209072.189 -19521697.319 12902766.081 10 0 60101 27000.00000 0 -9051358.855 -18209316.200 15435948.576 10 0 60101 27900.00000 0 -7577782.742 -16794961.024 17670065.779 10 0 60101 28800.00000 0 -5801254.152 -15340636.300 19561813.002 10 0 60101 29700.00000 0 -3747278.841 -13906413.627 21074495.847 10 0 60101 30600.00000 0 -1453160.952 -12547925.455 22178737.850 10 0 60101 31500.00000 0 1033286.844 -11314062.715 22853049.342 10 0 60101 32400.00000 0 3655474.292 -10244971.890 23084246.848 10 0 60101 33300.00000 0 6350135.657 -9370434.725 22867714.984 10 0 60101 34200.00000 0 9049717.647 -8708698.076 22207505.431 10 0 60101 35100.00000 0 11684955.802 -8265802.844 21116270.422 10 0 60101 36000.00000 0 14187533.883 -8035440.347 19615031.052 10 0 60101 36900.00000 0 16492716.854 -7999342.667 17732783.661 10 0 60101 37800.00000 0 18541848.603 -8128191.171 15505950.601 10 0 60101 38700.00000 0 20284610.616 -8383005.657 12977684.695 10 0 60101 39600.00000 0 21680947.149 -8716956.115 10197039.745 10 0 60101 40500.00000 0 22702575.999 -9077520.970 7218022.337 10 0 60101 41400.00000 0 23334020.915 -9408900.536 4098542.850 10 0 60101 42300.00000 0 23573121.699 -9654583.146 899286.111 10 0 60101 43200.00000 0 23430999.986 -9759954.414 -2317475.976 10 0 60101 44100.00000 0 22931481.846 -9674837.834 -5489105.870 10 0 60101 45000.00000 0 22110001.549 -9355857.544 -8553831.005 10 0 60101 45900.00000 0 21012033.075 -8768521.417 -11451958.292 10 0 60101 46800.00000 0 19691116.206 -7888934.583 -14127047.618 10 0 60101 47700.00000 0 18206561.383 -6705069.249 -16527020.203 10 0 60101 48600.00000 0 16620931.139 -5217535.737 -18605179.352 10 0 60101 49500.00000 0 14997405.252 -3439821.040 -20321123.082 10 0 60101 50400.00000 0 13397141.388 -1397983.965 -21641530.612 10 0 60101 51300.00000 0 11876742.832 870180.925 -22540807.542 10 0 60101 52200.00000 0 10485939.824 3316475.936 -23001577.597 10 0 60101 53100.00000 0 9265581.624 5884073.843 -23015012.060 10 0 60101 54000.00000 0 8246022.777 8509658.501 -22580991.315 10 0 60101 54900.00000 0 7445970.109 11125843.329 -21708096.247 10 0 60101 55800.00000 0 6871837.337 13663767.021 -20413430.487 10 0 60101 56700.00000 0 6517632.669 16055758.743 -18722277.739 10 0 60101 57600.00000 0 6365382.292 18237962.366 -16667601.431 10 0 60101 58500.00000 0 6386070.232 20152811.138 -14289396.878 10 0 60101 59400.00000 0 6541053.449 21751250.612 -11633908.891 10 0 60101 60300.00000 0 6783891.252 22994618.285 -8752730.193 10 0 60101 61200.00000 0 7062510.897 23856102.688 -5701798.317 10 0 60101 62100.00000 0 7321617.329 24321722.345 -2540310.462 10 0 60101 63000.00000 0 7505244.935 24390784.970 670422.663 10 0 60101 63900.00000 0 7559343.455 24075808.954 3868161.836 10 0 60101 64800.00000 0 7434288.897 23401911.518 6990940.406 10 0 60101 65700.00000 0 7087213.603 22405690.036 9978258.485 10 0 60101 66600.00000 0 6484057.297 21133643.960 12772247.484 10 0 60101 67500.00000 0 5601252.677 19640203.707 15318783.051 10 0 60101 68400.00000 0 4426974.333 17985448.925 17568525.510 10 0 60101 69300.00000 0 2961897.994 16232611.257 19477868.405 10 0 60101 70200.00000 0 1219437.282 14445465.339 21009777.588 10 0 60101 71100.00000 0 -774553.238 12685716.234 22134505.346 10 0 60101 72000.00000 0 -2982597.968 11010491.475 22830166.307 10 0 60101 72900.00000 0 -5356910.880 9470041.508 23083164.362 10 0 60101 73800.00000 0 -7841144.314 8105743.692 22888462.378 10 0 60101 74700.00000 0 -10372505.303 6948492.579 22249689.198 10 0 60101 75600.00000 0 -12884153.389 6017543.331 21179081.199 10 0 60101 76500.00000 0 -15307781.971 5319856.510 19697258.596 10 0 60101 77400.00000 0 -17576277.093 4849971.774 17832839.585 10 0 60101 78300.00000 0 -19626343.900 4590416.093 15621898.527 10 0 60101 79200.00000 0 -21400991.642 4512629.678 13107277.293 10 0 60101 80100.00000 0 -22851773.408 4578371.043 10337762.015 10 0 60101 81000.00000 0 -23940686.460 4741542.131 7367140.333 10 0 60101 81900.00000 0 -24641652.811 4950356.397 4253156.922 10 0 60101 82800.00000 0 -24941517.023 5149757.758 1056387.602 10 0 60101 83700.00000 0 -24840518.455 5283987.207 -2160945.708 10 0 60101 84600.00000 0 -24352217.382 5299187.219 -5336195.324 10 0 60101 85500.00000 0 -23502877.711 5145932.115 -8407518.536 10 0 60102 0.00000 0 -22330332.361 4781575.522 -11315093.246 10 0 60102 900.00000 0 -20882378.763 4172313.521 -14002295.059 10 0 60102 1800.00000 0 -19214774.348 3294874.991 -16416807.811 10 0 60102 2700.00000 0 -17388915.198 2137765.535 -18511650.141 10 0 60102 3600.00000 0 -15469297.952 702011.579 -20246093.587 10 0 60102 4500.00000 0 -13520871.945 -998627.858 -21586455.607 10 0 60102 5400.00000 0 -11606393.501 -2937991.344 -22506751.972 10 0 60102 6300.00000 0 -9783893.623 -5078373.803 -22989196.252 10 0 60102 7200.00000 0 -8104365.104 -7371878.135 -23024537.339 10 0 60102 8100.00000 0 -6609765.302 -9762203.271 -22612229.282 10 0 60102 9000.00000 0 -5331417.114 -12186794.086 -21760430.995 10 0 60102 9900.00000 0 -4288873.635 -14579263.496 -20485836.696 10 0 60102 10800.00000 0 -3489292.249 -16871985.915 -18813341.135 10 0 60102 11700.00000 0 -2927342.401 -18998754.288 -16775546.708 10 0 60102 12600.00000 0 -2585648.902 -20897390.359 -14412122.544 10 0 60102 13500.00000 0 -2435750.192 -22512199.965 -11769028.334 10 0 60102 14400.00000 0 -2439529.511 -23796171.731 -8897618.174 10 0 60102 15300.00000 0 -2551057.288 -24712828.279 -5853641.977 10 0 60102 16200.00000 0 -2718765.933 -25237653.622 -2696163.863 10 0 60102 17100.00000 0 -2887864.561 -25359038.144 513581.524 10 0 60102 18000.00000 0 -3002891.255 -25078702.637 3713372.656 10 0 60102 18900.00000 0 -3010294.941 -24411584.560 6841201.949 10 0 60102 19800.00000 0 -2860937.914 -23385192.044 9836470.826 10 0 60102 20700.00000 0 -2512413.487 -22038453.167 12641156.230 10 0 60102 21600.00000 0 -1931081.120 -20420108.867 15200926.568 10 0 60102 22500.00000 0 -1093733.243 -18586716.610 17466186.141 10 0 60102 23400.00000 0 11176.678 -16600347.818 19393028.601 10 0 60102 24300.00000 0 1382797.054 -14526074.566 20944081.747 10 0 60102 25200.00000 0 3007664.041 -12429349.447 22089228.079 10 0 60102 26100.00000 0 4860020.711 -10373386.883 22806187.722 10 0 60102 27000.00000 0 6902657.975 -8416653.913 23080952.835 10 0 60102 27900.00000 0 9088244.161 -6610573.965 22908065.157 10 0 60102 28800.00000 0 11361089.914 -4997538.472 22290731.028 10 0 60102 29700.00000 0 13659276.966 -3609308.523 21240771.041 10 0 60102 30600.00000 0 15917063.998 -2465872.846 19778404.348 10 0 60102 31500.00000 0 18067470.875 -1574809.657 17931870.587 10 0 60102 32400.00000 0 20044934.624 -931179.096 15736895.450 10 0 60102 33300.00000 0 21787926.919 -517950.900 13236008.919 10 0 60102 34200.00000 0 23241423.713 -306949.549 10477728.231 10 0 60102 35100.00000 0 24359123.292 -260277.138 7515620.538 10 0 60102 36000.00000 0 25105318.987 -332153.918 4407262.939 10 0 60102 36900.00000 0 25456346.896 -471098.333 1213120.068 10 0 60102 37800.00000 0 25401546.675 -622353.638 -2004638.595 10 0 60102 38700.00000 0 24943693.935 -730457.271 -5183357.878 10 0 60102 39600.00000 0 24098885.238 -741842.758 -8261127.700 10 0 60102 40500.00000 0 22895880.069 -607362.294 -11178000.237 10 0 60102 41400.00000 0 21374927.362 -284621.429 -13877168.492 10 0 60102 42300.00000 0 19586126.256 259974.693 -16306082.046 10 0 60102 43200.00000 0 17587390.604 1049551.658 -18417477.327 10 0 60102 44100.00000 0 15442103.471 2095544.590 -20170301.671 10 0 60102 45000.00000 0 13216560.912 3396977.985 -21530512.880 10 0 60102 45900.00000 0 10977312.842 4940277.753 -22471738.824 10 0 60102 46800.00000 0 8788512.770 6699623.827 -22975784.635 10 0 60102 47700.00000 0 6709387.327 8637828.855 -23032978.289 10 0 60102 48600.00000 0 4791930.969 10707706.232 -22642348.687 10 0 60102 49500.00000 0 3078921.276 12853870.262 -21811633.631 10 0 60102 50400.00000 0 1602336.464 15014893.149 -20557118.405 10 0 60102 51300.00000 0 382239.510 17125728.751 -18903308.867 10 0 60102 52200.00000 0 -573826.444 19120302.010 -16882446.023 10 0 60102 53100.00000 0 -1270908.248 20934156.185 -14533872.006 10 0 60102 54000.00000 0 -1726177.700 22507047.709 -11903260.125 10 0 60102 54900.00000 0 -1967952.895 23785380.844 -9041724.150 10 0 60102 55800.00000 0 -2034248.901 24724381.003 -6004824.247 10 0 60102 56700.00000 0 -1970920.320 25289916.616 -2851488.947 10 0 60102 57600.00000 0 -1829475.113 25459894.135 357126.026 10 0 60102 58500.00000 0 -1664652.709 25225168.549 3558819.945 10 0 60102 59400.00000 0 -1531868.991 24589932.040 6691547.588 10 0 60102 60300.00000 0 -1484636.189 23571565.052 9694615.086 10 0 60102 61200.00000 0 -1572066.468 22199956.402 12509848.317 10 0 60102 62100.00000 0 -1836564.423 20516320.958 15082711.778 10 0 60102 63000.00000 0 -2311805.610 18571564.131 17363356.958 10 0 60102 63900.00000 0 -3021086.299 16424261.007 19307580.619 10 0 60102 64800.00000 0 -3976114.153 14138333.669 20877675.258 10 0 60102 65700.00000 0 -5176291.312 11780522.525 22043156.019 10 0 60102 66600.00000 0 -6608520.999 9417755.819 22781350.580 10 0 60102 67500.00000 0 -8247547.169 7114525.578 23077840.979 10 0 60102 68400.00000 0 -10056814.807 4930377.941 22926748.924 10 0 60102 69300.00000 0 -11989816.853 2917621.249 22330858.790 10 0 60102 70200.00000 0 -13991873.594 1119346.363 21301575.312 10 0 60102 71100.00000 0 -16002272.205 -432158.997 19858715.875 10 0 60102 72000.00000 0 -17956678.805 -1716536.151 18030140.222 10 0 60102 72900.00000 0 -19789723.605 -2725974.754 15851223.464 10 0 60102 73800.00000 0 -21437651.916 -3465299.624 13364181.253 10 0 60102 74700.00000 0 -22840930.336 -3951521.373 10617259.052 10 0 60102 75600.00000 0 -23946698.657 -4212869.729 7663800.332 10 0 60102 76500.00000 0 -24710963.914 -4287350.346 4561211.217 10 0 60102 77400.00000 0 -25100443.298 -4220886.346 1369841.636 10 0 60102 78300.00000 0 -25093977.170 -4065123.737 -1848194.891 10 0 60102 79200.00000 0 -24683451.399 -3874994.538 -5030239.176 10 0 60102 80100.00000 0 -23874188.984 -3706142.029 -8114317.128 10 0 60102 81000.00000 0 -22684793.591 -3612318.723 -11040358.157 10 0 60102 81900.00000 0 -21146450.990 -3642868.891 -13751376.186 10 0 60102 82800.00000 0 -19301717.670 -3840403.932 -16194589.007 10 0 60102 83700.00000 0 -17202847.720 -4238770.475 -18322453.203 10 0 60102 84600.00000 0 -14909728.686 -4861398.481 -20093593.842 10 0 60102 85500.00000 0 -12487513.614 -5720100.163 -21473610.492 10 0 60103 0.00000 0 -10004049.260 -6814371.001 -22435743.893 10 0 60103 900.00000 0 -7527207.141 -8131223.431 -22961391.162 10 0 60103 1800.00000 0 -5122232.466 -9645558.865 -23040458.928 10 0 60103 2700.00000 0 -2849216.937 -11321064.405 -22671550.088 10 0 60103 3600.00000 0 -760803.505 -13111595.166 -21861980.019 10 0 60103 4500.00000 0 1099783.597 -14962984.660 -20627623.388 10 0 60103 5400.00000 0 2700302.714 -16815207.257 -18992595.188 10 0 60103 6300.00000 0 4020589.087 -18604802.187 -16988772.840 10 0 60103 7200.00000 0 5053136.055 -20267457.694 -14655169.132 10 0 60103 8100.00000 0 5803141.041 -21740647.434 -12037168.553 10 0 60103 9000.00000 0 6288016.651 -22966209.093 -9185642.038 10 0 60103 9900.00000 0 6536389.429 -23892757.707 -6155957.503 10 0 60103 10800.00000 0 6586630.212 -24477833.163 -3006905.391 10 0 60103 11700.00000 0 6484979.365 -24689692.506 200439.937 10 0 60103 12600.00000 0 6283347.013 -24508672.522 3403900.941 10 0 60103 13500.00000 0 6036881.695 -23928066.062 6541397.059 10 0 60103 14400.00000 0 5801410.376 -22954475.770 9552141.325 10 0 60103 15300.00000 0 5630857.865 -21607630.663 12377810.615 10 0 60103 16200.00000 0 5574754.340 -19919673.182 14963667.428 10 0 60103 17100.00000 0 5675935.843 -17933946.257 17259612.135 10 0 60103 18000.00000 0 5968534.424 -15703330.430 19221146.068 10 0 60103 18900.00000 0 6476342.488 -13288199.538 20810227.585 10 0 60103 19800.00000 0 7211620.392 -10754079.005 21996005.320 10 0 60103 20700.00000 0 8174397.961 -8169102.929 22755415.007 10 0 60103 21600.00000 0 9352300.217 -5601374.316 23073628.729 10 0 60103 22500.00000 0 10720906.029 -3116336.782 22944348.005 10 0 60103 23400.00000 0 12244626.330 -774265.703 22369934.794 10 0 60103 24300.00000 0 13878067.017 1372018.051 21361377.278 10 0 60103 25200.00000 0 15567821.452 3279117.528 19938090.170 10 0 60103 26100.00000 0 17254619.284 4914630.860 18127552.245 10 0 60103 27000.00000 0 18875743.150 6258258.980 15964786.800 10 0 60103 27900.00000 0 20367613.083 7302403.764 13491693.787 10 0 60103 28800.00000 0 21668430.741 8052231.543 10756245.389 10 0 60103 29700.00000 0 22720772.476 8525199.328 7811559.730 10 0 60103 30600.00000 0 23474021.709 8750063.710 4714870.126 10 0 60103 31500.00000 0 23886537.263 8765414.467 1526409.837 10 0 60103 32400.00000 0 23927465.064 8617795.263 -1691765.691 10 0 60103 33300.00000 0 23578115.420 8359491.700 -4876995.441 10 0 60103 34200.00000 0 22832846.352 8046081.422 -7967243.525 10 0 60103 35100.00000 0 21699414.518 7733851.351 -10902318.763 10 0 60103 36000.00000 0 20198777.936 7477192.979 -13625058.080 10 0 60103 36900.00000 0 18364358.196 7326087.543 -16082449.425 10 0 60103 37800.00000 0 16240792.948 7323789.041 -18226671.358 10 0 60103 38700.00000 0 13882231.124 7504804.348 -20016028.359 10 0 60103 39600.00000 0 11350242.683 7893256.819 -21415763.325 10 0 60103 40500.00000 0 8711430.855 8501703.137 -22398731.473 10 0 60103 41400.00000 0 6034847.048 9330453.675 -22945922.914 10 0 60103 42300.00000 0 3389316.594 10367425.067 -23046824.358 10 0 60103 43200.00000 0 840786.805 11588531.060 -22699613.725 10 0 60103 44100.00000 0 -1550192.649 12958594.967 -21911184.736 10 0 60103 45000.00000 0 -3730752.877 14432745.035 -20697001.892 10 0 60103 45900.00000 0 -5657658.619 15958233.875 -19080789.407 10 0 60103 46800.00000 0 -7298851.104 17476605.383 -17094060.810 10 0 60103 47700.00000 0 -8634518.478 18926118.126 -14775498.841 10 0 60103 48600.00000 0 -9657651.270 20244323.570 -12170198.063 10 0 60103 49500.00000 0 -10374061.905 21370691.155 -9328785.114 10 0 60103 50400.00000 0 -10801869.594 22249170.347 -6306433.835 10 0 60103 51300.00000 0 -10970474.234 22830582.540 -3161794.445 10 0 60103 52200.00000 0 -10919064.131 23074742.854 44142.479 10 0 60103 53100.00000 0 -10694721.708 22952223.198 3249225.255 10 0 60103 54000.00000 0 -10350207.931 22445683.050 6391340.855 10 0 60103 54900.00000 0 -9941519.410 21550712.375 9409612.245 10 0 60103 55800.00000 0 -9525321.368 20276151.476 12245570.425 10 0 60103 56700.00000 0 -9156364.621 18643874.265 14844279.052 10 0 60103 57600.00000 0 -8884995.130 16688043.600 17155390.503 10 0 60103 58500.00000 0 -8754860.705 14453869.129 19134113.684 10 0 60103 59400.00000 0 -8800911.033 11995918.480 20742075.640 10 0 60103 60300.00000 0 -9047775.055 9376050.895 21948061.059 10 0 60103 61200.00000 0 -9508583.976 6661057.887 22728615.945 10 0 60103 62100.00000 0 -10184289.851 3920107.457 23068504.224 10 0 60103 63000.00000 0 -11063509.211 1222096.413 22961008.539 10 0 60103 63900.00000 0 -12122899.524 -1366980.660 22408069.191 10 0 60103 64800.00000 0 -13328054.230 -3786537.854 21420257.969 10 0 60103 65700.00000 0 -14634880.531 -5983676.734 20016586.455 10 0 60103 66600.00000 0 -15991403.829 -7915143.403 18224151.374 10 0 60103 67500.00000 0 -17339924.660 -9548882.819 16077622.542 10 0 60103 68400.00000 0 -18619438.776 -10865125.730 13618582.006 10 0 60103 69300.00000 0 -19768219.443 -11856962.775 10894726.006 10 0 60103 70200.00000 0 -20726453.569 -12530381.680 7958944.298 10 0 60103 71100.00000 0 -21438820.372 -12903765.913 4868294.105 10 0 60103 72000.00000 0 -21856903.076 -13006876.044 1682888.558 10 0 60103 72900.00000 0 -21941330.701 -12879357.043 -1535278.504 10 0 60103 73800.00000 0 -21663558.093 -12568835.187 -4723547.794 10 0 60103 74700.00000 0 -21007207.453 -12128685.945 -7819825.146 10 0 60103 75600.00000 0 -19968913.244 -11615568.460 -10763802.202 10 0 60103 76500.00000 0 -18558633.507 -11086832.359 -13498142.142 10 0 60103 77400.00000 0 -16799413.427 -10597908.137 -15969606.095 10 0 60103 78300.00000 0 -14726610.481 -10199792.921 -18130097.273 10 0 60103 79200.00000 0 -12386613.346 -9936739.216 -19937601.826 10 0 60103 80100.00000 0 -9835108.322 -9844245.248 -21357007.710 10 0 60103 81000.00000 0 -7134966.047 -9947432.397 -22360785.675 10 0 60103 81900.00000 0 -4353837.032 -10259878.437 -22929519.491 10 0 60103 82800.00000 0 -1561556.643 -10782955.684 -23052275.697 10 0 60103 83700.00000 0 1172532.342 -11505701.597 -22726806.499 10 0 60103 84600.00000 0 3782228.366 -12405226.755 -21959582.713 10 0 60103 85500.00000 0 6206981.262 -13447642.435 -20765656.985 99